Location: Sungai Bunut
(2.6333°N, 113.7333°E)
Time: 13:53:27
(UTC+00:00)

S-56A Canister/Altair - Visible Passes

Search period start: 03 December 2023 00:00
Search period end: 13 December 2023 00:00
Orbit: 640 x 2489 km, 38.8° (Epoch: 02 December)

Date Brightness Start Highest point End Pass type
(mag) Time Alt. Az. Time Alt. Az. Time Alt. Az.
03 Dec 9.5 11:00:51 10° NNW 11:08:02 35° NE 11:18:14 10° ESE visible
03 Dec 9.6 13:03:36 10° WNW 13:13:07 66° SW 13:26:53 10° SE visible
03 Dec 11.2 15:11:59 10° WSW 15:20:45 22° SSW 15:30:56 10° SSE visible
03 Dec 11.6 21:52:39 10° S 21:56:32 12° SSE 21:59:58 10° SE visible
04 Dec 9.6 10:28:21 10° NNW 10:34:41 28° NE 10:43:20 10° E visible
04 Dec 9.3 12:30:24 10° NW 12:39:21 74° SW 12:52:42 10° SE visible
04 Dec 11.1 14:37:43 10° W 14:46:34 24° SSW 14:57:17 10° SSE visible
04 Dec 11.8 21:19:36 10° S 21:22:34 11° SSE 21:25:17 10° SE visible
05 Dec 9.1 11:57:19 10° NW 12:05:42 85° SW 12:18:28 10° SE visible
05 Dec 10.9 14:03:43 10° W 14:12:28 27° SSW 14:23:32 10° SSE visible
05 Dec 11.9 20:47:25 10° SSE 20:48:30 10° SSE 20:49:33 10° SSE visible
06 Dec 8.9 11:24:21 10° NW 11:32:08 83° NE 11:44:11 10° SE visible
06 Dec 10.7 13:29:55 10° W 13:38:27 30° SSW 13:49:41 10° SSE visible
07 Dec 8.8 10:51:28 10° NW 10:58:41 70° NE 11:09:51 10° SE visible
07 Dec 10.5 12:56:17 10° W 13:04:32 34° SW 13:15:48 10° SSE visible
07 Dec 11.8 15:13:13 10° SSW 15:13:30 10° SSW 15:13:47 10° SSW visible
07 Dec 11.0 21:38:58 10° SSW 21:48:58 29° SSE 21:56:18 10° E visible
08 Dec 10.3 12:22:49 10° W 12:30:42 37° SW 12:41:52 10° SSE visible
08 Dec 11.7 14:35:48 10° SW 14:39:10 11° SSW 14:42:45 10° S visible
08 Dec 11.2 21:05:07 10° SSW 21:15:07 26° SSE 21:22:42 10° E visible
09 Dec 10.1 11:49:29 10° WNW 11:56:58 42° SW 12:07:54 10° SSE visible
09 Dec 11.6 14:00:33 10° SW 14:04:56 13° SSW 14:09:47 10° S visible
09 Dec 11.3 20:31:19 10° SSW 20:41:09 24° SSE 20:48:54 10° E visible
10 Dec 9.8 11:16:17 10° WNW 11:23:21 48° SW 11:33:56 10° SSE visible
10 Dec 11.5 13:25:51 10° SW 13:30:47 14° SSW 13:36:28 10° S visible
10 Dec 11.4 19:57:34 10° SSW 20:07:06 21° SSE 20:14:55 10° ESE visible
11 Dec 9.5 10:43:10 10° WNW 10:49:49 55° SW 10:59:58 10° SE visible
11 Dec 11.4 12:51:32 10° WSW 12:56:46 15° SSW 13:02:59 10° S visible
11 Dec 11.6 19:23:54 10° S 19:32:58 19° SSE 19:40:40 10° ESE visible
11 Dec 9.9 21:27:42 10° SW 21:40:34 60° SE 21:49:17 10° ENE visible
12 Dec 11.3 12:17:29 10° WSW 12:22:50 17° SSW 12:29:25 10° S visible
12 Dec 11.6 18:50:22 10° S 18:58:43 17° SSE 19:06:07 10° ESE visible
12 Dec 10.2 20:53:35 10° SW 21:06:46 53° SE 21:16:00 10° ENE visible
